| time (UTC) | temp C | wind direction | speed KPH | gust KPH | rain 1hr cm | rain 24hr cm | rain mn cm | humidity % | barometer mb |
| 20260901231003 | 25 | 225 | 11.3 | 22.5 | 0.00 | 0.00 | 0.00 | 24 | 1017.5 |
| 20260901230004 | 25 | 222 | 8.0 | 16.1 | 0.00 | 0.00 | 0.00 | 26 | 1017.6 |
| 20260901225503 | 25 | 209 | 9.7 | 11.3 | 0.00 | 0.00 | 0.00 | 25 | 1017.6 |
| 20260901224504 | 25 | 238 | 8.0 | 24.1 | 0.00 | 0.00 | 0.00 | 25 | 1017.6 |
| 20260901224003 | 24 | 231 | 8.0 | 14.5 | 0.00 | 0.00 | 0.00 | 23 | 1017.7 |
| 20260901222503 | 23 | 223 | 11.3 | 22.5 | 0.00 | 0.00 | 0.00 | 23 | 1017.6 |
| 20260901222003 | 23 | 212 | 11.3 | 17.7 | 0.00 | 0.00 | 0.00 | 24 | 1017.6 |
| 20260901221004 | 23 | 203 | 16.1 | 19.3 | 0.00 | 0.00 | 0.00 | 25 | 1017.6 |
| 20260901220503 | 23 | 233 | 16.1 | 25.7 | 0.00 | 0.00 | 0.00 | 23 | 1017.5 |
| 20260901220003 | 23 | 219 | 17.7 | 25.7 | 0.00 | 0.00 | 0.00 | 23 | 1017.5 |
| 20260901215503 | 23 | 218 | 17.7 | 25.7 | 0.00 | 0.00 | 0.00 | 24 | 1017.5 |
| 20260901214504 | 23 | 221 | 17.7 | 30.6 | 0.00 | 0.00 | 0.00 | 23 | 1017.5 |
| 20260901214003 | 23 | 224 | 17.7 | 25.7 | 0.00 | 0.00 | 0.00 | 22 | 1017.5 |
| 20260901213503 | 23 | 214 | 19.3 | 25.7 | 0.00 | 0.00 | 0.00 | 20 | 1017.4 |
| 20260901213004 | 23 | 212 | 20.9 | 33.8 | 0.00 | 0.00 | 0.00 | 21 | 1017.4 |
| 20260901212002 | 23 | 220 | 20.9 | 33.8 | 0.00 | 0.00 | 0.00 | 22 | 1017.5 |
| 20260901211502 | 23 | 227 | 22.5 | 29.0 | 0.00 | 0.00 | 0.00 | 25 | 1017.6 |
| 20260901211002 | 22 | 228 | 24.1 | 35.4 | 0.00 | 0.00 | 0.00 | 27 | 1017.6 |
| 20260901210002 | 22 | 231 | 25.7 | 30.6 | 0.00 | 0.00 | 0.00 | 29 | 1017.6 |
| 20260901205502 | 22 | 231 | 25.7 | 38.6 | 0.00 | 0.00 | 0.00 | 30 | 1017.7 |
| 20260901205002 | 22 | 232 | 25.7 | 38.6 | 0.00 | 0.00 | 0.00 | 32 | 1017.7 |
| 20260901203503 | 22 | 211 | 22.5 | 30.6 | 0.00 | 0.00 | 0.00 | 31 | 1017.7 |
| 20260901203002 | 22 | 232 | 22.5 | 33.8 | 0.00 | 0.00 | 0.00 | 30 | 1017.7 |
| 20260901202502 | 22 | 236 | 20.9 | 35.4 | 0.00 | 0.00 | 0.00 | 29 | 1017.7 |
| 20260901202002 | 22 | 227 | 20.9 | 33.8 | 0.00 | 0.00 | 0.00 | 29 | 1017.7 |
| 20260901201502 | 22 | 232 | 19.3 | 33.8 | 0.00 | 0.00 | 0.00 | 28 | 1017.7 |
| 20260901201002 | 22 | 224 | 19.3 | 30.6 | 0.00 | 0.00 | 0.00 | 26 | 1017.8 |
| 20260901200503 | 22 | 223 | 19.3 | 25.7 | 0.00 | 0.00 | 0.00 | 26 | 1017.9 |
| 20260901200002 | 22 | 216 | 20.9 | 30.6 | 0.00 | 0.00 | 0.00 | 24 | 1017.8 |
| 20260901195002 | 22 | 236 | 22.5 | 37.0 | 0.00 | 0.00 | 0.00 | 24 | 1018.1 |
| 20260901194502 | 23 | 237 | 19.3 | 40.2 | 0.00 | 0.00 | 0.00 | 23 | 1018.0 |
| 20260901194003 | 24 | 228 | 14.5 | 35.4 | 0.00 | 0.00 | 0.00 | 19 | 1018.1 |
| 20260901193502 | 25 | 223 | 14.5 | 19.3 | 0.00 | 0.00 | 0.00 | 19 | 1018.2 |
| 20260901193002 | 25 | 196 | 12.9 | 20.9 | 0.00 | 0.00 | 0.00 | 15 | 1018.3 |
| 20260901192502 | 25 | 165 | 12.9 | 29.0 | 0.00 | 0.00 | 0.00 | 15 | 1018.3 |
| 20260901192003 | 25 | 183 | 11.3 | 35.4 | 0.00 | 0.00 | 0.00 | 15 | 1018.2 |
| 20260901191502 | 25 | 240 | 9.7 | 25.7 | 0.00 | 0.00 | 0.00 | 19 | 1018.2 |
| 20260901191002 | 25 | 203 | 9.7 | 20.9 | 0.00 | 0.00 | 0.00 | 12 | 1018.1 |
| 20260901190502 | 25 | 203 | 6.4 | 19.3 | 0.00 | 0.00 | 0.00 | 13 | 1018.3 |
| 20260901190003 | 25 | 160 | 11.3 | 20.9 | 0.00 | 0.00 | 0.00 | 10 | 1018.1 |
| 20260901185502 | 25 | 189 | 12.9 | 19.3 | 0.00 | 0.00 | 0.00 | 11 | 1018.2 |
| 20260901185002 | 25 | 204 | 11.3 | 20.9 | 0.00 | 0.00 | 0.00 | 19 | 1018.4 |
| 20260901184503 | 25 | 167 | 11.3 | 30.6 | 0.00 | 0.00 | 0.00 | 9 | 1018.2 |
| 20260901183502 | 25 | 192 | 17.7 | 29.0 | 0.00 | 0.00 | 0.00 | 11 | 1018.1 |
| 20260901183002 | 25 | 183 | 14.5 | 30.6 | 0.00 | 0.00 | 0.00 | 10 | 1018.1 |
| 20260901182502 | 25 | 195 | 11.3 | 30.6 | 0.00 | 0.00 | 0.00 | 11 | 1017.9 |
| 20260901182003 | 25 | 165 | 14.5 | 16.1 | 0.00 | 0.00 | 0.00 | 11 | 1018.1 |
| 20260901181002 | 25 | 177 | 16.1 | 30.6 | 0.00 | 0.00 | 0.00 | 11 | 1018.0 |
| 20260901180502 | 25 | 177 | 16.1 | 20.9 | 0.00 | 0.00 | 0.00 | 11 | 1017.9 |
| 20260901180002 | 24 | 173 | 14.5 | 29.0 | 0.00 | 0.00 | 0.00 | 11 | 1017.8 |
| 20260901175502 | 24 | 176 | 14.5 | 24.1 | 0.00 | 0.00 | 0.00 | 11 | 1017.8 |
| 20260901175003 | 24 | 152 | 14.5 | 27.4 | 0.00 | 0.00 | 0.00 | 11 | 1017.8 |
| 20260901174503 | 24 | 162 | 11.3 | 33.8 | 0.00 | 0.00 | 0.00 | 12 | 1017.9 |
| 20260901174002 | 24 | 168 | 11.3 | 20.9 | 0.00 | 0.00 | 0.00 | 12 | 1017.7 |
| 20260901173502 | 23 | 167 | 12.9 | 19.3 | 0.00 | 0.00 | 0.00 | 13 | 1017.8 |
| 20260901173003 | 23 | 163 | 9.7 | 25.7 | 0.00 | 0.00 | 0.00 | 14 | 1017.8 |
| 20260901172503 | 22 | 148 | 6.4 | 22.5 | 0.00 | 0.00 | 0.00 | 16 | 1017.7 |
| 20260901172002 | 21 | 53 | 6.4 | 14.5 | 0.00 | 0.00 | 0.00 | 23 | 1017.8 |
| 20260901171502 | 20 | 222 | 8.0 | 20.9 | 0.00 | 0.00 | 0.00 | 21 | 1017.7 |
| 20260901171002 | 20 | 268 | 6.4 | 14.5 | 0.00 | 0.00 | 0.00 | 27 | 1017.8 |
| 20260901170502 | 19 | 256 | 8.0 | 14.5 | 0.00 | 0.00 | 0.00 | 26 | 1017.8 |
| 20260901170003 | 19 | 251 | 6.4 | 20.9 | 0.00 | 0.00 | 0.00 | 28 | 1018.0 |
| 20260901165502 | 18 | 252 | 8.0 | 17.7 | 0.00 | 0.00 | 0.00 | 28 | 1018.0 |
| 20260901165002 | 18 | 252 | 6.4 | 19.3 | 0.00 | 0.00 | 0.00 | 28 | 1018.0 |
| 20260901164502 | 18 | 252 | 6.4 | 14.5 | 0.00 | 0.00 | 0.00 | 28 | 1017.9 |
| 20260901163502 | 18 | 244 | 6.4 | 17.7 | 0.00 | 0.00 | 0.00 | 31 | 1018.0 |
| 20260901163003 | 18 | 244 | 4.8 | 16.1 | 0.00 | 0.00 | 0.00 | 31 | 1017.9 |
| 20260901162502 | 17 | 257 | 6.4 | 11.3 | 0.00 | 0.00 | 0.00 | 32 | 1017.9 |
| 20260901162002 | 17 | 247 | 6.4 | 12.9 | 0.00 | 0.00 | 0.00 | 32 | 1018.0 |
| 20260901161502 | 17 | 253 | 4.8 | 11.3 | 0.00 | 0.00 | 0.00 | 33 | 1018.0 |
| 20260901161003 | 17 | 246 | 3.2 | 12.9 | 0.00 | 0.00 | 0.00 | 33 | 1018.0 |
| 20260901160502 | 17 | 250 | 3.2 | 8.0 | 0.00 | 0.00 | 0.00 | 34 | 1018.1 |
| 20260901155503 | 16 | 265 | 1.6 | 6.4 | 0.00 | 0.00 | 0.00 | 36 | 1018.1 |
| 20260901154003 | 15 | 269 | 0.0 | 1.6 | 0.00 | 0.00 | 0.00 | 37 | 1018.2 |
| 20260901153502 | 14 | 260 | 0.0 | 3.2 | 0.00 | 0.00 | 0.00 | 39 | 1018.3 |
| 20260901153002 | 13 | 250 | 1.6 | 4.8 | 0.00 | 0.00 | 0.00 | 41 | 1018.3 |
| 20260901152502 | 13 | 242 | 1.6 | 3.2 | 0.00 | 0.00 | 0.00 | 44 | 1018.3 |
| 20260901152003 | 12 | 272 | 0.0 | 3.2 | 0.00 | 0.00 | 0.00 | 45 | 1018.3 |
| 20260901151002 | 11 | 1 | 0.0 | 4.8 | 0.00 | 0.00 | 0.00 | 49 | 1017.9 |
| 20260901150503 | 11 | 54 | 0.0 | 1.6 | 0.00 | 0.00 | 0.00 | 50 | 1018.0 |
| 20260901145002 | 10 | 0 | 0.0 | 0.0 | 0.00 | 0.00 | 0.00 | 51 | 1017.9 |
| 20260901144503 | 9 | 0 | 0.0 | 0.0 | 0.00 | 0.00 | 0.00 | 51 | 1017.8 |
| 20260901144002 | 9 | 60 | 0.0 | 3.2 | 0.00 | 0.00 | 0.00 | 52 | 1017.8 |
| 20260901143003 | 8 | 0 | 0.0 | 0.0 | 0.00 | 0.00 | 0.00 | 51 | 1017.8 |
| 20260901142502 | 8 | 0 | 0.0 | 0.0 | 0.00 | 0.00 | 0.00 | 51 | 1017.7 |
| 20260901142002 | 8 | 0 | 0.0 | 0.0 | 0.00 | 0.00 | 0.00 | 50 | 1017.8 |
| 20260901141002 | 8 | 32 | 1.6 | 3.2 | 0.00 | 0.00 | 0.00 | 49 | 1017.6 |
| 20260901140502 | 8 | 0 | 0.0 | 0.0 | 0.00 | 0.00 | 0.00 | 49 | 1017.4 |
| 20260901135502 | 8 | 31 | 0.0 | 3.2 | 0.00 | 0.00 | 0.00 | 50 | 1017.7 |
| 20260901135002 | 8 | 0 | 0.0 | 0.0 | 0.00 | 0.00 | 0.00 | 49 | 1017.6 |
| 20260901134503 | 8 | 67 | 0.0 | 1.6 | 0.00 | 0.00 | 0.00 | 50 | 1017.5 |
| 20260901134003 | 8 | 77 | 0.0 | 1.6 | 0.00 | 0.00 | 0.00 | 50 | 1017.3 |
| 20260901133003 | 8 | 76 | 1.6 | 1.6 | 0.00 | 0.00 | 0.00 | 49 | 1017.3 |
| 20260901132502 | 8 | 80 | 1.6 | 3.2 | 0.00 | 0.00 | 0.00 | 49 | 1017.3 |
| 20260901131503 | 8 | 69 | 0.0 | 1.6 | 0.00 | 0.00 | 0.00 | 52 | 1017.2 |
| 20260901131002 | 8 | 0 | 0.0 | 0.0 | 0.00 | 0.00 | 0.00 | 52 | 1017.2 |
| 20260901130503 | 8 | 0 | 0.0 | 0.0 | 0.00 | 0.00 | 0.00 | 52 | 1017.2 |
| 20260901130003 | 8 | 0 | 0.0 | 0.0 | 0.00 | 0.00 | 0.00 | 52 | 1017.2 |
| 20260901125502 | 8 | 0 | 0.0 | 0.0 | 0.00 | 0.00 | 0.00 | 51 | 1017.3 |
| 20260901125003 | 8 | 0 | 0.0 | 0.0 | 0.00 | 0.00 | 0.00 | 51 | 1017.3 |
| 20260901124503 | 9 | 0 | 0.0 | 0.0 | 0.00 | 0.00 | 0.00 | 52 | 1017.3 |
| 20260901124003 | 9 | 67 | 0.0 | 1.6 | 0.00 | 0.00 | 0.00 | 52 | 1017.4 |
| 20260901123502 | 9 | 0 | 0.0 | 0.0 | 0.00 | 0.00 | 0.00 | 52 | 1017.4 |
| 20260901123002 | 9 | 0 | 0.0 | 0.0 | 0.00 | 0.00 | 0.00 | 51 | 1017.4 |
| 20260901122003 | 9 | 30 | 0.0 | 1.6 | 0.00 | 0.00 | 0.00 | 52 | 1017.3 |
| 20260901121502 | 9 | 33 | 0.0 | 3.2 | 0.00 | 0.00 | 0.00 | 52 | 1017.3 |
| 20260901121002 | 9 | 0 | 0.0 | 0.0 | 0.00 | 0.00 | 0.00 | 52 | 1017.4 |
| 20260901120503 | 9 | 34 | 0.0 | 1.6 | 0.00 | 0.00 | 0.00 | 52 | 1017.3 |
| 20260901120003 | 9 | 18 | 0.0 | 1.6 | 0.00 | 0.00 | 0.00 | 52 | 1017.2 |
| 20260901115503 | 10 | 0 | 0.0 | 0.0 | 0.00 | 0.00 | 0.00 | 52 | 1017.2 |
| 20260901115002 | 10 | 28 | 0.0 | 1.6 | 0.00 | 0.00 | 0.00 | 52 | 1017.3 |
| 20260901114502 | 10 | 0 | 0.0 | 0.0 | 0.00 | 0.00 | 0.00 | 52 | 1017.2 |
| 20260901114003 | 10 | 55 | 0.0 | 1.6 | 0.00 | 0.00 | 0.00 | 52 | 1017.2 |
| 20260901113502 | 10 | 102 | 0.0 | 1.6 | 0.00 | 0.00 | 0.00 | 52 | 1017.1 |
| 20260901113003 | 10 | 71 | 0.0 | 3.2 | 0.00 | 0.00 | 0.00 | 51 | 1017.2 |
| 20260901112002 | 10 | 0 | 0.0 | 0.0 | 0.00 | 0.00 | 0.00 | 52 | 1017.0 |
| 20260901111003 | 11 | 37 | 0.0 | 1.6 | 0.00 | 0.00 | 0.00 | 51 | 1017.1 |
| 20260901110503 | 11 | 34 | 0.0 | 1.6 | 0.00 | 0.00 | 0.00 | 51 | 1017.1 |
| 20260901110003 | 11 | 33 | 0.0 | 1.6 | 0.00 | 0.00 | 0.00 | 51 | 1017.1 |
| 20260901105503 | 11 | 0 | 0.0 | 0.0 | 0.00 | 0.00 | 0.00 | 52 | 1017.1 |
| 20260901105002 | 11 | 33 | 0.0 | 1.6 | 0.00 | 0.00 | 0.00 | 52 | 1017.0 |
| 20260901104002 | 11 | 0 | 0.0 | 0.0 | 0.00 | 0.00 | 0.00 | 52 | 1017.1 |
| 20260901103503 | 11 | 0 | 0.0 | 0.0 | 0.00 | 0.00 | 0.00 | 52 | 1017.1 |
| 20260901103003 | 11 | 0 | 0.0 | 0.0 | 0.00 | 0.00 | 0.00 | 52 | 1017.0 |
| 20260901102502 | 11 | 0 | 0.0 | 0.0 | 0.00 | 0.00 | 0.00 | 52 | 1017.0 |
| 20260901102002 | 11 | 0 | 0.0 | 0.0 | 0.00 | 0.00 | 0.00 | 52 | 1017.0 |
| 20260901101003 | 11 | 0 | 0.0 | 0.0 | 0.00 | 0.00 | 0.00 | 52 | 1017.1 |
| 20260901100503 | 11 | 0 | 0.0 | 0.0 | 0.00 | 0.00 | 0.00 | 52 | 1017.2 |
| 20260901100003 | 11 | 83 | 0.0 | 1.6 | 0.00 | 0.00 | 0.00 | 52 | 1017.1 |
| 20260901095502 | 11 | 0 | 0.0 | 0.0 | 0.00 | 0.00 | 0.00 | 52 | 1017.2 |
| 20260901095002 | 11 | 0 | 0.0 | 0.0 | 0.00 | 0.00 | 0.00 | 51 | 1017.2 |
| 20260901094503 | 11 | 0 | 0.0 | 0.0 | 0.00 | 0.00 | 0.00 | 51 | 1017.1 |
| 20260901094002 | 12 | 99 | 0.0 | 1.6 | 0.00 | 0.00 | 0.00 | 51 | 1017.2 |
| 20260901093503 | 12 | 98 | 0.0 | 1.6 | 0.00 | 0.00 | 0.00 | 50 | 1017.1 |
| 20260901093003 | 12 | 90 | 0.0 | 1.6 | 0.00 | 0.00 | 0.00 | 50 | 1017.2 |
| 20260901092503 | 12 | 90 | 0.0 | 1.6 | 0.00 | 0.00 | 0.00 | 49 | 1017.2 |
| 20260901092002 | 12 | 0 | 0.0 | 0.0 | 0.00 | 0.00 | 0.00 | 49 | 1017.3 |
| 20260901091503 | 12 | 0 | 0.0 | 0.0 | 0.00 | 0.00 | 0.00 | 49 | 1017.3 |
| 20260901091002 | 12 | 0 | 0.0 | 0.0 | 0.00 | 0.00 | 0.00 | 49 | 1017.2 |
| 20260901090502 | 12 | 0 | 0.0 | 0.0 | 0.00 | 0.00 | 0.00 | 49 | 1017.3 |
| 20260901090003 | 13 | 0 | 0.0 | 0.0 | 0.00 | 0.00 | 0.00 | 48 | 1017.3 |
| 20260901085503 | 13 | 0 | 0.0 | 0.0 | 0.00 | 0.00 | 0.00 | 48 | 1017.3 |
| 20260901085002 | 13 | 0 | 0.0 | 0.0 | 0.00 | 0.00 | 0.00 | 48 | 1017.4 |
| 20260901084502 | 13 | 0 | 0.0 | 0.0 | 0.00 | 0.00 | 0.00 | 48 | 1017.4 |
| 20260901084003 | 13 | 90 | 0.0 | 1.6 | 0.00 | 0.00 | 0.00 | 47 | 1017.4 |
| 20260901083502 | 13 | 0 | 0.0 | 0.0 | 0.00 | 0.00 | 0.00 | 46 | 1017.4 |
| 20260901083003 | 13 | 0 | 0.0 | 0.0 | 0.00 | 0.00 | 0.00 | 46 | 1017.4 |
| 20260901082503 | 13 | 0 | 0.0 | 0.0 | 0.00 | 0.00 | 0.00 | 46 | 1017.5 |
| 20260901082003 | 14 | 0 | 0.0 | 0.0 | 0.00 | 0.00 | 0.00 | 45 | 1017.4 |
| 20260901075503 | 15 | 82 | 0.0 | 1.6 | 0.00 | 0.00 | 0.00 | 44 | 1017.7 |
| 20260901075003 | 15 | 77 | 0.0 | 1.6 | 0.00 | 0.00 | 0.00 | 44 | 1017.7 |
| 20260901074503 | 15 | 51 | 0.0 | 1.6 | 0.00 | 0.00 | 0.00 | 43 | 1017.6 |
| 20260901073502 | 15 | 0 | 0.0 | 0.0 | 0.00 | 0.00 | 0.00 | 44 | 1017.6 |
| 20260901073003 | 15 | 50 | 0.0 | 1.6 | 0.00 | 0.00 | 0.00 | 44 | 1017.5 |
| 20260901072503 | 15 | 50 | 0.0 | 1.6 | 0.00 | 0.00 | 0.00 | 43 | 1017.5 |
| 20260901072003 | 15 | 0 | 0.0 | 0.0 | 0.00 | 0.00 | 0.00 | 43 | 1017.5 |
| 20260901071503 | 16 | 0 | 0.0 | 0.0 | 0.00 | 0.00 | 0.00 | 43 | 1017.5 |
| 20260901071003 | 16 | 0 | 0.0 | 0.0 | 0.00 | 0.00 | 0.00 | 42 | 1017.5 |
| 20260901070502 | 16 | 0 | 0.0 | 0.0 | 0.00 | 0.00 | 0.00 | 42 | 1017.5 |
| 20260901065503 | 16 | 0 | 0.0 | 0.0 | 0.00 | 0.00 | 0.00 | 41 | 1017.4 |
| 20260901065003 | 16 | 0 | 0.0 | 0.0 | 0.00 | 0.00 | 0.00 | 41 | 1017.4 |
| 20260901064503 | 17 | 0 | 0.0 | 0.0 | 0.00 | 0.00 | 0.00 | 40 | 1017.4 |
| 20260901064003 | 17 | 49 | 0.0 | 3.2 | 0.00 | 0.00 | 0.00 | 39 | 1017.4 |
| 20260901063503 | 17 | 49 | 0.0 | 1.6 | 0.00 | 0.00 | 0.00 | 39 | 1017.4 |
| 20260901063003 | 17 | 0 | 0.0 | 0.0 | 0.00 | 0.00 | 0.00 | 38 | 1017.4 |
| 20260901062503 | 17 | 0 | 0.0 | 0.0 | 0.00 | 0.00 | 0.00 | 38 | 1017.4 |
| 20260901062002 | 18 | 59 | 0.0 | 1.6 | 0.00 | 0.00 | 0.00 | 37 | 1017.3 |
| 20260901061503 | 18 | 0 | 0.0 | 0.0 | 0.00 | 0.00 | 0.00 | 36 | 1017.4 |
| 20260901061003 | 18 | 134 | 1.6 | 1.6 | 0.00 | 0.00 | 0.00 | 36 | 1017.2 |
| 20260901060503 | 18 | 126 | 1.6 | 4.8 | 0.00 | 0.00 | 0.00 | 36 | 1017.2 |
| 20260901060003 | 18 | 124 | 1.6 | 4.8 | 0.00 | 0.00 | 0.00 | 37 | 1017.3 |
| 20260901055503 | 18 | 129 | 0.0 | 4.8 | 0.00 | 0.00 | 0.00 | 37 | 1017.3 |
| 20260901055003 | 18 | 119 | 1.6 | 3.2 | 0.00 | 0.00 | 0.00 | 38 | 1017.3 |
| 20260901053503 | 18 | 75 | 1.6 | 3.2 | 0.00 | 0.00 | 0.00 | 38 | 1017.3 |
| 20260901052503 | 18 | 150 | 3.2 | 6.4 | 0.00 | 0.00 | 0.00 | 38 | 1017.4 |
| 20260901052004 | 18 | 144 | 3.2 | 6.4 | 0.00 | 0.00 | 0.00 | 39 | 1017.4 |
| 20260901051503 | 17 | 143 | 1.6 | 8.0 | 0.00 | 0.00 | 0.00 | 39 | 1017.4 |
| 20260901051002 | 17 | 132 | 0.0 | 4.8 | 0.00 | 0.00 | 0.00 | 38 | 1017.6 |
| 20260901045503 | 18 | 66 | 0.0 | 1.6 | 0.00 | 0.00 | 0.00 | 38 | 1017.4 |
| 20260901045002 | 18 | 61 | 0.0 | 4.8 | 0.00 | 0.00 | 0.00 | 37 | 1017.4 |
| 20260901044506 | 18 | 0 | 0.0 | 0.0 | 0.00 | 0.00 | 0.00 | 37 | 1017.3 |
| 20260901043503 | 19 | 0 | 0.0 | 0.0 | 0.00 | 0.00 | 0.00 | 36 | 1017.3 |
| 20260901042503 | 19 | 55 | 1.6 | 1.6 | 0.00 | 0.00 | 0.00 | 35 | 1017.0 |
| 20260901041503 | 20 | 0 | 0.0 | 0.0 | 0.00 | 0.00 | 0.00 | 35 | 1016.9 |
| 20260901040503 | 20 | 58 | 1.6 | 3.2 | 0.00 | 0.00 | 0.00 | 34 | 1016.9 |
| 20260901040003 | 20 | 69 | 3.2 | 3.2 | 0.00 | 0.00 | 0.00 | 33 | 1016.8 |
| 20260901035503 | 21 | 73 | 1.6 | 4.8 | 0.00 | 0.00 | 0.00 | 33 | 1016.6 |
| 20260901035003 | 21 | 73 | 0.0 | 4.8 | 0.00 | 0.00 | 0.00 | 32 | 1016.5 |
| 20260901034503 | 21 | 0 | 0.0 | 0.0 | 0.00 | 0.00 | 0.00 | 32 | 1016.5 |
| 20260901034003 | 21 | 0 | 0.0 | 0.0 | 0.00 | 0.00 | 0.00 | 32 | 1016.5 |
| 20260901033503 | 21 | 0 | 0.0 | 0.0 | 0.00 | 0.00 | 0.00 | 31 | 1016.4 |
| 20260901033003 | 21 | 171 | 0.0 | 3.2 | 0.00 | 0.00 | 0.00 | 31 | 1016.3 |
| 20260901032504 | 21 | 0 | 0.0 | 0.0 | 0.00 | 0.00 | 0.00 | 31 | 1016.2 |
| 20260901031503 | 22 | 103 | 0.0 | 3.2 | 0.00 | 0.00 | 0.00 | 30 | 1016.1 |
| 20260901031003 | 22 | 0 | 0.0 | 0.0 | 0.00 | 0.00 | 0.00 | 30 | 1016.0 |
| 20260901030503 | 22 | 26 | 0.0 | 1.6 | 0.00 | 0.00 | 0.00 | 29 | 1016.0 |
| 20260901030003 | 22 | 0 | 1.6 | 0.0 | 0.00 | 0.00 | 0.00 | 28 | 1015.9 |
| 20260901025503 | 22 | 35 | 1.6 | 4.8 | 0.00 | 0.00 | 0.00 | 28 | 1016.0 |
| 20260901025004 | 22 | 74 | 0.0 | 4.8 | 0.00 | 0.00 | 0.00 | 27 | 1016.0 |
| 20260901024503 | 23 | 178 | 0.0 | 1.6 | 0.00 | 0.00 | 0.00 | 27 | 1015.9 |
| 20260901024003 | 23 | 178 | 1.6 | 4.8 | 0.00 | 0.00 | 0.00 | 27 | 1015.8 |
| 20260901023503 | 23 | 174 | 3.2 | 3.2 | 0.00 | 0.00 | 0.00 | 26 | 1015.7 |
| 20260901023003 | 23 | 169 | 3.2 | 8.0 | 0.00 | 0.00 | 0.00 | 26 | 1015.7 |
| 20260901022503 | 23 | 184 | 3.2 | 16.1 | 0.00 | 0.00 | 0.00 | 26 | 1015.7 |
| 20260901022003 | 23 | 187 | 6.4 | 11.3 | 0.00 | 0.00 | 0.00 | 25 | 1015.7 |
| 20260901021503 | 23 | 186 | 8.0 | 11.3 | 0.00 | 0.00 | 0.00 | 25 | 1015.6 |
| 20260901021003 | 24 | 187 | 6.4 | 16.1 | 0.00 | 0.00 | 0.00 | 25 | 1015.6 |
| 20260901020504 | 24 | 178 | 4.8 | 16.1 | 0.00 | 0.00 | 0.00 | 24 | 1015.6 |
| 20260901020003 | 25 | 170 | 3.2 | 9.7 | 0.00 | 0.00 | 0.00 | 24 | 1015.5 |
| 20260901015503 | 25 | 175 | 4.8 | 8.0 | 0.00 | 0.00 | 0.00 | 24 | 1015.5 |
| 20260901015004 | 25 | 162 | 4.8 | 11.3 | 0.00 | 0.00 | 0.00 | 23 | 1015.5 |
| 20260901014503 | 26 | 151 | 1.6 | 16.1 | 0.00 | 0.00 | 0.00 | 23 | 1015.5 |
| 20260901014004 | 26 | 248 | 3.2 | 1.6 | 0.00 | 0.00 | 0.00 | 22 | 1015.5 |
| 20260901013503 | 26 | 230 | 4.8 | 6.4 | 0.00 | 0.00 | 0.00 | 22 | 1015.5 |
| 20260901013003 | 26 | 253 | 3.2 | 6.4 | 0.00 | 0.00 | 0.00 | 22 | 1015.5 |
| 20260901012503 | 26 | 226 | 4.8 | 8.0 | 0.00 | 0.00 | 0.00 | 22 | 1015.4 |
| 20260901012003 | 26 | 192 | 8.0 | 9.7 | 0.00 | 0.00 | 0.00 | 22 | 1015.4 |
| 20260901010503 | 26 | 233 | 12.9 | 22.5 | 0.00 | 0.00 | 0.00 | 21 | 1015.3 |
| 20260901010004 | 26 | 230 | 12.9 | 24.1 | 0.00 | 0.00 | 0.00 | 21 | 1015.3 |
| 20260901005503 | 26 | 220 | 12.9 | 22.5 | 0.00 | 0.00 | 0.00 | 21 | 1015.3 |
| 20260901005003 | 26 | 231 | 12.9 | 25.7 | 0.00 | 0.00 | 0.00 | 20 | 1015.3 |
| 20260901004503 | 26 | 233 | 14.5 | 19.3 | 0.00 | 0.00 | 0.00 | 20 | 1015.3 |
| 20260901004004 | 26 | 241 | 14.5 | 22.5 | 0.00 | 0.00 | 0.00 | 21 | 1015.4 |
| 20260901003503 | 26 | 238 | 14.5 | 24.1 | 0.00 | 0.00 | 0.00 | 20 | 1015.4 |
| 20260901003003 | 26 | 239 | 14.5 | 25.7 | 0.00 | 0.00 | 0.00 | 20 | 1015.4 |
| 20260901001503 | 26 | 226 | 14.5 | 30.6 | 0.00 | 0.00 | 0.00 | 20 | 1015.6 |
| 20260901001003 | 27 | 232 | 12.9 | 20.9 | 0.00 | 0.00 | 0.00 | 20 | 1015.5 |
| 20260901000503 | 27 | 235 | 14.5 | 29.0 | 0.00 | 0.00 | 0.00 | 20 | 1015.5 |
| 20260831235503 | 27 | 240 | 14.5 | 33.8 | 0.00 | 0.00 | 0.00 | 20 | 1015.4 |
| 20260831235004 | 27 | 235 | 16.1 | 24.1 | 0.00 | 0.00 | 0.00 | 20 | 1015.4 |
| 20260831233503 | 27 | 242 | 16.1 | 29.0 | 0.00 | 0.00 | 0.00 | 20 | 1015.4 |
| 20260831233004 | 27 | 240 | 14.5 | 27.4 | 0.00 | 0.00 | 0.00 | 20 | 1015.5 |
| 20260831232503 | 27 | 235 | 12.9 | 29.0 | 0.00 | 0.00 | 0.00 | 20 | 1015.6 |
| 20260831232003 | 27 | 240 | 14.5 | 20.9 | 0.00 | 0.00 | 0.00 | 20 | 1015.6 |